[[{"header":{"parameterUnit":"m.s-1","parameterCategory":1,"la1":30.2991,"la2":30.254,"lo1":-89.0895,"lo2":-89.0444,"dy":0.0017,"dx":0.0017,"nx":28,"ny":28,"refTime":"2023-08-20T03:00:00:Z","depth":0,"parameterNumber":2,"parameterNumberName":"U-component_of_WINDS"},"data":[0,0,0,0,0,0,0,0,0,0,0,0,0,0,0,0,0,0,0,0,0,0,0,0,0,0,0,0,0,0,0,0,0,0,0,0,0,0,0,0,0,0,0,0,0,0,0,0,0,0,0,0,0,0,0,0,0,0,-6.9509,-6.951,0,-6.9663,-6.9664,-6.9666,-6.9629,-6.9626,-6.9623,-6.962,-6.9768,-6.9775,-6.9781,0,0,0,0,0,0,0,0,0,0,0,0,0,-6.9174,-6.918,-6.9509,-6.9511,-6.9513,-6.9662,-6.9664,-6.9667,-6.963,-6.9626,-6.9622,-6.9619,-6.9766,-6.9774,-6.9782,0,0,0,0,0,0,0,0,0,0,0,0,0,-6.9322,-6.9182,-6.9508,-6.9512,-6.9514,-6.9662,-6.9665,-6.9667,-6.963,-6.9626,-6.9621,-6.9617,-6.9763,-6.9773,-6.9783,-6.9933,0,0,-6.9813,-6.9818,0,0,0,0,0,0,0,0,-6.9314,-6.9335,-6.951,-6.9512,-6.9515,-6.9622,-6.96,-6.9756,-6.9631,-6.9586,-6.962,-6.9615,-6.9722,-6.9736,-6.9774,-6.994,-6.9946,-6.9814,-6.982,-6.9825,-6.9827,0,0,0,0,0,0,0,-6.9304,-6.9328,-6.9569,-6.9512,-6.9515,-6.9504,-6.952,-6.963,-6.9677,-6.959,-6.9587,-6.9607,-6.9723,-6.9764,-6.9777,-6.9948,-6.9814,-6.9823,-6.9829,-6.9833,-7.0243,-7.0248,0,0,0,0,0,0,-6.9293,-6.9319,-6.9564,-6.9574,-6.9402,-6.9513,-6.9531,-6.9592,-6.9676,-6.9684,-6.961,-6.9604,-6.9749,-6.9765,-6.9782,-6.9961,-6.9825,-6.9834,-6.984,-7.0238,-7.0244,-7.0249,0,0,0,0,0,0,-6.9286,-6.9315,-6.9558,-6.9446,-6.9476,-6.9524,-6.9592,-6.9597,-6.9639,-6.9691,-6.9698,-6.9644,-6.9746,-6.9768,-6.9896,-6.9966,-6.9838,-6.9848,-7.0232,-7.024,-7.0247,-7.0322,0,0,0,0,0,0,-6.9276,-6.9313,-6.9372,-6.9448,-6.9483,-6.9672,-6.9597,-6.9604,-6.9657,-6.9651,-6.9725,-6.9733,-6.9745,-6.9881,-6.9906,-6.9977,-6.9855,-7.0226,-7.0236,-7.0245,-7.0313,-7.0331,-7.0346,0,0,0,0,0,-6.9264,-6.9385,-6.9375,-6.9405,-6.9558,-6.9676,-6.9696,-6.9709,-6.9663,-6.9722,-6.9756,-6.9731,-6.9955,-6.9895,-6.9922,-6.9998,-7.0222,-7.0233,-7.0244,-7.0306,-7.0328,-7.0346,0,0,0,0,0,0,-6.9312,-6.9395,-6.9385,-6.9535,-6.9599,-6.967,-6.9744,-6.9732,-6.9808,-6.9799,-6.981,-6.9827,-6.9957,-6.9991,-6.9922,-7.0146,-7.0081,-7.0098,-7.0119,-7.014,-7.0156,-7.0143,-6.9864,0,0,0,0,0,-6.9341,-6.9433,-6.9499,-6.9625,-6.9658,-6.9696,-6.9748,-6.9754,-6.9819,-6.9845,-6.9888,-6.9951,-7.0035,-7.009,-7.0171,-7.032,-7.0333,-7.0385,-7.0401,-7.0414,-7.0428,-7.0507,-7.0529,-7.0286,-7.0286,-7.0285,0,0,-6.9399,-6.9456,-6.9513,-6.9636,-6.9687,-6.9778,-6.9719,-6.9819,-6.9886,-6.9859,-6.9983,-7.0017,-7.0087,-7.0226,-7.0289,-7.0258,-7.0499,-7.0429,-7.0439,-7.0445,-7.052,-7.0543,-7.0564,-7.0293,-7.0292,-7.0291,0,0,-6.9553,-6.9607,-6.9716,-6.9769,-6.9848,-6.9873,-6.99,-6.9974,-6.9996,-7.0122,-7.0103,-7.0182,-7.0328,-7.0378,-7.0423,-7.0598,-7.0577,-7.0624,-7.0707,-7.0784,-7.0803,-7.082,-7.088,-7.0901,-7.0638,-7.0638,-7.0638,0,-6.9614,-6.9755,-6.9773,-6.9876,-6.9929,-6.9914,-7.0023,-7.0073,-7.0172,-7.0208,-7.0173,-7.0356,-7.0402,-7.0551,-7.0594,-7.0632,-7.066,-7.0613,-7.08,-7.0817,-7.0833,-7.089,-7.0912,-7.0643,-7.0642,-7.0642,-7.0641,0,-6.9826,-6.9924,-7.0003,-7.0103,-7.0166,-7.0271,-7.0302,-7.0363,-7.0364,-7.0392,-7.0518,-7.0574,-7.0665,-7.0702,-7.0702,-7.0851,-7.0829,-7.0798,-7.0731,-7.0861,-7.0914,-7.0936,-7.065,-7.0648,-7.0647,-7.0645,0,0,-7.0009,-7.0121,-7.0149,-7.0194,-7.0282,-7.0356,-7.046,-7.0553,-7.0603,-7.0674,-7.0758,-7.0884,-7.0855,-7.0906,-7.0912,-7.098,-7.1112,-7.094,-7.0941,-7.0967,-7.1276,-7.1297,-7.1322,-7.1101,-7.1105,-7.1108,-7.1269,0,-7.0168,-7.0354,-7.0374,-7.0539,-7.0628,-7.0616,-7.0706,-7.0768,-7.0797,-7.0875,-7.0906,-7.0993,-7.0951,-7.0981,-7.1049,-7.1082,-7.1173,-7.1071,-7.1175,-7.1179,-7.1155,-7.135,-7.1373,-7.1522,-7.129,-7.1294,-7.1297,0,-7.0377,-7.0456,-7.0631,-7.0706,-7.0744,-7.0825,-7.0911,-7.0988,-7.1056,-7.1073,-7.1131,-7.1129,-7.1233,-7.1167,-7.1308,-7.1238,-7.1283,-7.1306,-7.1312,-7.1318,-7.1243,-7.1359,-7.157,-7.1591,-7.133,-7.1327,-7.1325,0,-7.0489,-7.064,-7.0764,-7.0803,-7.0895,-7.0952,-7.0992,-7.1057,-7.1111,-7.1186,-7.1221,-7.1306,-7.1352,-7.1416,-7.1436,-7.1387,-7.1576,-7.1512,-7.1589,-7.1588,-7.1625,-7.1622,-7.1843,-7.1661,-7.1661,-7.166,-7.166,0,-7.0661,-7.0768,-7.0816,-7.0891,-7.101,-7.1032,-7.1147,-7.1184,-7.1242,-7.1322,-7.1317,-7.1392,-7.1416,-7.1494,-7.151,-7.1623,-7.1644,-7.1658,-7.166,-7.1656,-7.1654,-7.1682,-7.1671,-7.1666,-7.1665,-7.1664,-7.1663,0,-7.0805,-7.0842,-7.0976,-7.1053,-7.1075,-7.1158,-7.1222,-7.1294,-7.1324,-7.1425,-7.145,-7.1495,-7.1587,-7.1615,-7.1724,-7.1735,-7.1866,-7.1861,-7.1844,-7.1843,-7.1917,-7.1908,-7.216,-7.2193,-7.1993,-7.1995,-7.1997,0,-7.0911,-7.0993,-7.108,-7.1135,-7.1179,-7.1268,-7.1324,-7.1349,-7.1407,-7.1493,-7.1553,-7.1645,-7.1719,-7.1866,-7.1906,-7.199,-7.1984,-7.2067,-7.1996,-7.199,-7.1981,-7.1975,-7.1982,-7.2079,-7.2081,-7.2082,-7.2084,0,-7.1094,-7.1108,-7.1192,-7.1283,-7.1351,-7.1422,-7.1491,-7.1536,-7.157,-7.1635,-7.1731,-7.1789,-7.1903,-7.1993,-7.2078,-7.2116,-7.2104,-7.2107,-7.2128,-7.2123,-7.2108,-7.2114,-7.1876,-7.21,-7.2098,-7.2097,-7.2096,-7.2095,-7.1219,-7.1291,-7.1364,-7.1457,-7.1512,-7.1577,-7.1648,-7.1688,-7.177,-7.1866,-7.1875,-7.1978,-7.2044,-7.2158,-7.2201,-7.2279,-7.2255,-7.2287,-7.2294,-7.2301,-7.2305,-7.21,-7.2295,-7.2295,-7.2294,-7.2294,-7.2294,0,-7.1399,-7.1446,-7.1532,-7.163,-7.1702,-7.1691,-7.1766,-7.1827,-7.1918,-7.1983,-7.2058,-7.2167,-7.2254,-7.2303,-7.239,-7.2443,-7.244,-7.2465,-7.2459,-7.2467,-7.2324,-7.2295,-7.2466,-7.2466,-7.2466,-7.2466,-7.2466,-7.2466,-7.15,-7.1621,-7.1645,-7.1792,-7.1838,-7.1941,-7.1985,-7.2044,-7.2095,-7.2219,-7.2293,-7.2326,-7.2383,-7.2475,-7.2554,-7.2565,-7.2596,-7.2623,-7.2631,-7.2495,-7.2477,-7.246,-7.2433,-7.263,-7.263,-7.2767,-7.2769,-7.277]},{"header":{"parameterUnit":"m.s-1","parameterCategory":1,"la1":30.2991,"la2":30.254,"lo1":-89.0895,"lo2":-89.0444,"dy":0.0017,"dx":0.0017,"nx":28,"ny":28,"refTime":"2023-08-20T03:00:00:Z","depth":0,"parameterNumber":3,"parameterNumberName":"V-component_of_WINDS"},"data":[0,0,0,0,0,0,0,0,0,0,0,0,0,0,0,0,0,0,0,0,0,0,0,0,0,0,0,0,0,0,0,0,0,0,0,0,0,0,0,0,0,0,0,0,0,0,0,0,0,0,0,0,0,0,0,0,0,0,3.1762,3.1762,0,3.1807,3.1807,3.1808,3.1836,3.1836,3.1836,3.1836,3.1878,3.1878,3.1879,0,0,0,0,0,0,0,0,0,0,0,0,0,3.1696,3.1697,3.1762,3.1762,3.1763,3.1807,3.1807,3.1808,3.1836,3.1836,3.1836,3.1836,3.1877,3.1878,3.188,0,0,0,0,0,0,0,0,0,0,0,0,0,3.1731,3.1697,3.1762,3.1782,3.1784,3.1807,3.1807,3.1808,3.1836,3.1836,3.1836,3.1836,3.1877,3.1878,3.188,3.1884,0,0,3.1884,3.1885,0,0,0,0,0,0,0,0,3.1729,3.1733,3.1778,3.1781,3.1783,3.1816,3.1799,3.1833,3.1835,3.1816,3.1836,3.1836,3.1857,3.186,3.1867,3.1886,3.1888,3.1884,3.1885,3.1886,3.1886,0,0,0,0,0,0,0,3.1726,3.1731,3.1779,3.1779,3.1782,3.1788,3.1793,3.1806,3.1834,3.1818,3.182,3.1825,3.1858,3.1866,3.1869,3.1888,3.1884,3.1885,3.1886,3.1887,3.1913,3.1913,0,0,0,0,0,0,3.1721,3.1729,3.1778,3.1781,3.1756,3.1789,3.1795,3.1805,3.1834,3.1839,3.1825,3.1826,3.1863,3.1867,3.187,3.1877,3.1886,3.1887,3.1888,3.1913,3.1913,3.1913,0,0,0,0,0,0,3.172,3.1725,3.1776,3.1756,3.1763,3.179,3.1801,3.1806,3.1814,3.184,3.1844,3.1828,3.1864,3.1868,3.1881,3.1879,3.1888,3.1889,3.1913,3.1913,3.1913,3.1892,0,0,0,0,0,0,3.1718,3.1725,3.1727,3.1756,3.1764,3.1787,3.1801,3.1807,3.1817,3.1819,3.1844,3.1848,3.1864,3.1879,3.1882,3.1881,3.189,3.1913,3.1913,3.1913,3.1893,3.1891,3.1889,0,0,0,0,0,3.1715,3.1718,3.1727,3.1733,3.1768,3.1787,3.1791,3.1811,3.1817,3.1819,3.1836,3.1848,3.1879,3.188,3.1884,3.1884,3.1914,3.1913,3.1913,3.1893,3.1891,3.1889,0,0,0,0,0,0,3.1687,3.1722,3.1733,3.1745,3.1763,3.1792,3.1795,3.1808,3.1823,3.1824,3.1847,3.1852,3.1862,3.1874,3.1874,3.1889,3.1898,3.1898,3.1881,3.1879,3.1878,3.1874,3.1891,0,0,0,0,0,3.1683,3.1697,3.1726,3.1734,3.1743,3.1768,3.1777,3.1791,3.1809,3.1816,3.1834,3.185,3.1864,3.1872,3.1886,3.1895,3.19,3.1897,3.1895,3.1893,3.1893,3.1899,3.1897,3.1911,3.1911,3.1911,0,0,3.1673,3.1694,3.1701,3.1729,3.1745,3.1758,3.1774,3.1786,3.1796,3.1818,3.1831,3.1845,3.1865,3.1875,3.1881,3.1885,3.1891,3.1893,3.1891,3.1892,3.1898,3.1897,3.1896,3.1911,3.1911,3.1911,0,0,3.1662,3.1679,3.1689,3.1705,3.1729,3.1745,3.1747,3.1774,3.1785,3.1799,3.1816,3.1827,3.185,3.1864,3.1874,3.187,3.1881,3.1873,3.1864,3.1869,3.1868,3.1867,3.1865,3.1864,3.1873,3.1873,3.1873,0,3.1646,3.1668,3.1691,3.1704,3.1716,3.1738,3.1747,3.1761,3.1787,3.1794,3.18,3.183,3.1845,3.1859,3.1859,3.1866,3.1868,3.187,3.1866,3.1866,3.1865,3.1864,3.1863,3.1872,3.1872,3.1872,3.1872,0,3.1648,3.1662,3.1667,3.1694,3.1706,3.1717,3.1741,3.175,3.1763,3.1779,3.1793,3.1812,3.1831,3.1835,3.1847,3.1851,3.1854,3.1862,3.1871,3.1863,3.1862,3.1861,3.1871,3.1871,3.1871,3.1872,0,0,3.1618,3.166,3.1661,3.1675,3.1703,3.1715,3.1726,3.1746,3.1754,3.1771,3.1781,3.1801,3.181,3.1821,3.1835,3.1839,3.1835,3.1848,3.1849,3.1845,3.1841,3.1834,3.1833,3.1843,3.1843,3.1843,3.1839,0,3.1611,3.1635,3.1657,3.1672,3.1686,3.1708,3.1718,3.1736,3.1752,3.1765,3.1781,3.1795,3.1805,3.1812,3.1818,3.1834,3.1834,3.1835,3.1851,3.1852,3.1845,3.1832,3.1825,3.182,3.1839,3.1839,3.1839,0,3.1606,3.1625,3.1642,3.1671,3.1678,3.1686,3.1707,3.1719,3.174,3.1751,3.1765,3.178,3.1792,3.18,3.1817,3.1817,3.1825,3.1834,3.1834,3.1836,3.1844,3.1833,3.1819,3.1818,3.1838,3.1838,3.1838,0,3.1583,3.1613,3.1627,3.1638,3.1672,3.1677,3.1691,3.1713,3.1724,3.1741,3.1749,3.1766,3.1776,3.1789,3.1809,3.1813,3.1823,3.1833,3.1832,3.1831,3.1832,3.1831,3.1818,3.1838,3.1838,3.1838,3.1838,0,3.1572,3.1582,3.1618,3.1626,3.1637,3.1662,3.1672,3.1688,3.1707,3.1718,3.1738,3.1748,3.1774,3.1786,3.1801,3.1813,3.1817,3.1825,3.1829,3.1823,3.1822,3.1828,3.1829,3.1838,3.1838,3.1838,3.1838,0,3.1548,3.1572,3.1589,3.1621,3.1629,3.1636,3.1662,3.1671,3.1688,3.1702,3.1707,3.1733,3.1749,3.1771,3.1792,3.1803,3.1812,3.1818,3.1806,3.1808,3.1805,3.1805,3.1795,3.1795,3.1815,3.1815,3.1814,0,3.1539,3.1547,3.1581,3.1591,3.1605,3.162,3.1633,3.1657,3.1669,3.1694,3.17,3.1718,3.1734,3.1758,3.1778,3.1795,3.1802,3.1797,3.1804,3.1798,3.1801,3.18,3.1801,3.1795,3.1794,3.1794,3.1794,0,3.1521,3.1533,3.1551,3.1573,3.1587,3.1605,3.1624,3.163,3.1659,3.1671,3.1689,3.1701,3.1725,3.1742,3.1762,3.1775,3.1789,3.1792,3.1792,3.1786,3.1778,3.1782,3.18,3.1792,3.1792,3.1792,3.1792,3.1792,3.1504,3.1512,3.1538,3.1557,3.1574,3.1592,3.1602,3.1621,3.1637,3.166,3.1673,3.1691,3.1712,3.1741,3.1753,3.1766,3.1772,3.1772,3.1772,3.1772,3.177,3.1777,3.177,3.177,3.177,3.177,3.177,0,3.1486,3.1504,3.1522,3.1549,3.1564,3.1578,3.16,3.1611,3.1626,3.1646,3.1662,3.1682,3.17,3.1722,3.1741,3.1747,3.1754,3.1751,3.175,3.1753,3.1765,3.1762,3.1745,3.1745,3.1745,3.1745,3.1745,3.1745,3.1479,3.1495,3.151,3.1534,3.1552,3.1571,3.1582,3.1598,3.1614,3.1637,3.1652,3.1668,3.1688,3.1709,3.1725,3.1731,3.1737,3.1732,3.174,3.175,3.1752,3.1754,3.1752,3.1733,3.1733,3.1727,3.1727,3.1727]}]]